Regional Weather Roundup
Issued by NWS Burlington, VT

Current Version | Previous Version | Text Only | Print | Product List | Glossary On
Versions: 1 2 3 4 5 6 7 8 9 10 11 12 13 14 15 16 17 18 19 20 21 22 23 24 25 26 27 28 29 30 31 32 33 34 35 36 37 38 39 40 41 42 43 44 45 46 47 48 49 50
960
ASUS41 KBTV 301430
RWRBTV
VERMONT REGIONAL WEATHER ROUNDUP
NATIONAL WEATHER SERVICE BURLINGTON VT
1000 AM EDT THU MAR 30 2017

NOTE: "FAIR" INDICATES FEW OR NO CLOUDS BELOW 12,000 FEET WITH NO
SIGNIFICANT WEATHER AND/OR OBSTRUCTIONS TO VISIBILITY.

* THESE REPORTS ARE NOT UNDER NWS QUALITY CONTROL AND/OR DO NOT
  REPORT WEATHER SUCH AS PRECIPITATION AND FOG.

VTZ001>019-301500-
_____VERMONT_____


CITY           SKY/WX    TMP DP  RH WIND       PRES   REMARKS
BURLINGTON     MOSUNNY   36  18  48 NE12      30.30F WCI  28
MONTPELIER     SUNNY     32  18  56 NW9G21    30.27F WCI  24
MORRISVILLE    SUNNY     33  16  49 VRB7      30.28F WCI  27
ST. JOHNSBURY*   N/A     34  18  52 MISG      30.22F
LYNDONVILLE*   FAIR      31  19  58 W10G17    30.24S WCI  23
MIDDLEBURY*    FAIR      35  17  49 N12G20    30.28S WCI  26
RUTLAND*       SUNNY     34  16  47 NW8       30.25F WCI  27
SPRINGFIELD    SUNNY     36  16  44 VRB7G16   30.24F WCI  30
HIGHGATE*      FAIR      34  20  56 N10G16    30.30F WCI  26
NEWPORT*       FAIR      31  20  63 N9        30.25S WCI  23
BENNINGTON     SUNNY     35  19  52 NW9       30.25S WCI  28
SUTTON*          N/A     30 N/A N/A MISG        N/A
ISLAND POND*     N/A     32 N/A N/A NW8         N/A  WCI  25
GALLUP MILLS*    N/A     32 N/A N/A MISG        N/A
UNION VILLAGE*   N/A     36 N/A N/A MISG        N/A

_____LAKE CHAMPLAIN_____


CITY           SKY/WX    TMP DP  RH WIND       PRES   REMARKS
BURTON ISLAND*   N/A     36  23  60 NE3         N/A
COLCHESTER RF*   N/A     34  25  69 NE13        N/A  WCI  25
DIAMOND ISL*     N/A     34  23  64 N16         N/A  WCI  23

$$

NYZ007-026>031-035-052-083-087-301500-
_____NORTHERN NEW YORK_____


CITY           SKY/WX    TMP DP  RH WIND       PRES   REMARKS
PLATTSBURGH    MOSUNNY   36  17  46 NE8       30.30F WCI  30
SARANAC LAKE   PTSUNNY   30  18  60 NE8       30.21S WCI  22
MASSENA        SUNNY     36  21  54 NE10      30.34R WCI  28
POTSDAM*       SUNNY     37  23  56 E3        30.30F
STARK FALLS*     N/A     36 N/A N/A NE1         N/A
WATERTOWN      MOSUNNY   36  26  67 E7        30.29F WCI  30
FT DRUM        SUNNY     36  20  54 NE8       30.27F WCI  29
ALBANY         PTSUNNY   37  18  46 NE13      30.29F WCI  29
GLENS FALLS    MOSUNNY   37  20  50 N7        30.29F WCI  32

$$
NHZ002-005-011-301500-
_____NEW HAMPSHIRE_____


CITY           SKY/WX    TMP DP  RH WIND       PRES   REMARKS
LEBANON        MOSUNNY   37  19  48 NW8       30.24F WCI  31
KEENE          SUNNY     37  19  48 NW12      30.24F WCI  29
MT WASHINGTON  PTSUNNY    9   5  85 N23G33      N/A  WCI -12
PLYMOUTH       FAIR      37  18  46 W8        30.23F WCI  30
WHITEFIELD     SUNNY     32  17  54 N7        30.21F WCI  26

$$

_____REGIONAL QUEBEC LOCATIONS_____


CITY           SKY/WX    TMP DP  RH WIND       PRES   REMARKS
MONTREAL       MOSUNNY   36  18  48 N10       30.32S WCI  28
QUEBEC CITY    MOSUNNY   34  18  51 N12       30.25S WCI  25
SHERBROOKE     SUNNY     32  19  59 NW7       30.23F WCI  26

_____REGIONAL ONTARIO LOCATIONS_____


CITY           SKY/WX    TMP DP  RH WIND       PRES   REMARKS
OTTAWA         MOSUNNY   36  19  51 NE9       30.32F WCI  29

______KEY______
VSB  - VISIBILITY IN MILES
WCI  - WIND CHILL INDEX
HX   - HEAT INDEX
$$
NNNN




USA.gov is the U.S. government's official web portal to all federal, state and local government web resources and services.